Flag for Brazil Weather past 2 weeks in Santarém, Para, Brazil

Now
75 °F

Clear.


Feels Like: 74 °F
Forecast: 73 / 95 °F
Wind: No wind

Location: Santarem-Aeroporto

Current Time: Oct 21, 2014 at 3:40:06 AM

Latest Report: Oct 21, 2014 at 3:00 AM


Visibility: 10 mi

Pressure: 29.80 "Hg

Humidity: 94%

Dew point: 73 °F

Location of SantarémLocation

Historic Weather in Santarém — Graph

°F

Santarém temperature yesterday

Maximum temperature yesterday: 93 °F (at 3:00 PM)
Minimum temperature yesterday: 75 °F (at 11:00 PM)
Average temperature yesterday: 85 °F

Past Weeks' High & Low Weather Summary

 TemperatureHumidityPressure
High93 °F (Oct 12, 3:00 PM)100% (Oct 6, 3:00 AM)29.95 "Hg (Oct 6, 3:00 AM)
Low73 °F (Oct 6, 6:00 AM)44% (Oct 20, 4:00 PM)29.68 "Hg (Oct 9, 5:00 PM)
Average84 °F74%29.84 "Hg
* Reported Oct 6 2:00 AM — Oct 21 2:00 AM, Santarém, Weather by CustomWeather, © 2014

Note: Actual official high and low records may vary slightly from our data, if they occured in-between our weather recording intervals... More about our weather records

Advertising

Santarém weather history for previous 24 hours

 ConditionsComfort  
Time TempWeatherWind HumidityBarometerVisibility
2:00 AM
Oct 21
73 °FClear.No wind94%29.80 "Hg10 mi
1:00 AM75 °FClear.No wind89%29.80 "Hg10 mi
12:00 AM75 °FClear.No wind89%29.83 "Hg10 mi
11:00 PM
Oct 20
75 °FClear.No wind89%29.83 "Hg10 mi
7:00 PM82 °FClear.2 mph70%29.74 "Hg10 mi
5:00 PM91 °FPassing clouds.8 mph49%29.77 "HgN/A
4:00 PM93 °FPassing clouds.7 mph44%29.77 "HgN/A
3:00 PM93 °FPassing clouds.No wind49%29.80 "HgN/A
2:00 PM91 °FPassing clouds.12 mph52%29.83 "HgN/A
1:00 PM91 °FPassing clouds.7 mph52%29.86 "HgN/A
12:00 PM90 °FPassing clouds.5 mph59%29.89 "HgN/A
11:00 AM88 °FPassing clouds.5 mph55%29.92 "HgN/A
10:00 AM88 °FPassing clouds.8 mph62%29.92 "HgN/A
9:00 AM86 °FSunny.8 mph66%29.92 "Hg10 mi
8:00 AM84 °FSunny.7 mph70%29.89 "Hg10 mi
7:00 AM77 °FSunny.5 mph89%29.86 "Hg10 mi
6:00 AM77 °FClear.6 mph89%29.83 "Hg10 mi
5:00 AM77 °FClear.No wind89%29.83 "Hg10 mi
4:00 AM79 °FClear.No wind89%29.83 "Hg10 mi
3:00 AM81 °FClear.5 mph79%29.83 "Hg10 mi
Weather by CustomWeather, © 2014

See weather overviewHow to use our weather pages